Aérodrome :
LOGIN :

S'inscrire | Disclaimer

   EN    FR    IT 

 










Légende :    VFR   VFR Marginal   IFR   IFR Intensif   IFR Très Intensif
Visi : 
Plafond : 
>= 8 km
>= 3000ft
5 à 8 km
1000 à 3000 ft
1500m à 5 km
500 à 1000 ft
800 à 1500m
200 à 500 ft
< 800m
< 200 ft
Symboles :   Orages  Brouillard  Fortes neiges  Fortes précipitations  Vent > 20 kt
SIGMETs :   Divers  Orages  Givrage  Turbulence  Onde Orograph.  Cendres Volcan.







- Altitude de l'aérodrome : 18 ft
- Code IATA : AJA
- Voir les cartes d'approche


LFKJ - Ajaccio

DERNIER METAR :
  • 170730Z AUTO 22005KT 190V260 CAVOK 24/16 Q1013 NOSIG

METARs EXPIRÉS :
  • 170700Z AUTO VRB01KT CAVOK 24/16 Q1012 NOSIG
  • 170630Z AUTO 00000KT CAVOK 23/15 Q1012 NOSIG
  • 170600Z AUTO VRB02KT CAVOK 22/16 Q1012 NOSIG
  • 170530Z AUTO VRB02KT CAVOK 20/16 Q1012 NOSIG
  • 170500Z AUTO 04005KT 360V060 CAVOK 19/16 Q1012 NOSIG

TAF TAF LFKJ
Valide du 17 à 03h jusqu'au 18 à 03h UTC


170200Z 1703/1803 04004KT 9999 SCT025
BECMG 1710/1712 23010KT
ATIS : +33 4 95 23 59 85
Pas de NOTAMs connus pour ce terrain.



MET'MAP, la Météo Aéronautique d'un coup d'oeil ! - Copyright ORBIFLY Décembre 2007 - Disclaimer

ORBIFLY MET'MAP TEAM :

Programmation & Développement : Alexandra Zaïnal
Conception & Développement : Baudouin d'Aumeries
Co-Programmation & Développement : Marc-Olivier Méhu
Soutien technique & logistique : Manuel Goepfert

Contact : metmap@orbifly.com




SOURCES & CREDITS :

   NOAA